Weather in Kizva

Russia / Perm Krai     58°28′55″N   54°32′31″E
temp.,
°C
wind,
m/s
gust,
m/s
humid.,
%
clouds,
%
prec.,
mm/h
press.,
hPa
HPBL,
m
7 march, sun
sun723:00−17wsw2597100 0.1 1010101
02:00−19w229874 0.0 101020
05:00−20sw129955 0.0 101020
08:00−20wsw119985 0.0 100920
11:00−15wsw139090 0.1 1009289
14:00−11sw2380100 0.1 1008771
17:00−11sw2382100 0.1 1007665
20:00−15s2293100 0.1 100720
8 march, mon
mon823:00−16sse229898 0.1 100653
02:00−17sse239999 0.1 100489
05:00−16se3896100 0.1 1002283
08:00−15se4995100 0.5 1000365
11:00−13se4992100 1.1 998586
14:00−10se4890100 0.3 996648
17:00−9e4892100 0.8 994588
20:00−9ne4895100 1.6 994485
9 march, tue
tue923:00−11n3794100 2.1 996275
02:00−13nw249799 0.0 99889
05:00−14nnw1297100 0.2 100048
08:00−15n1297100 0.4 100258
11:00−13n2492100 0.7 1003334
14:00−12n3489100 0.2 1004556
17:00−13n3689100 0.3 1006523
20:00−17n399499 0.1 1008347
10 march, wed
wed1023:00−22n389678 0.1 1011235
02:00−26n38960 0.0 1013224
05:00−28n38960 0.0 1014219
08:00−31n38950 0.0 1015199
11:00−26n37880 0.0 1016315
14:00−20n35810 0.0 1015493
17:00−17nnw35790 0.0 1014732
20:00−22wnw239360 0.0 101546
11 march, thu
thu1123:00−23w379646 0.0 1015134
02:00−23wsw279872 0.0 1014140
05:00−22w389586 0.0 1014266
08:00−20w3897100 0.2 1013392
11:00−18w3692100 0.4 1013374
14:00−14w3790100 0.1 1012498
17:00−11w4889100 0.3 1013721
20:00−10wnw2796100 0.4 1013337